Overview Statistics Trail Chart Weather Telemetry Raw packets
 

This is the latest recevied weather packets stored in our database for station/object K6CEG. If no packets are shown the sender has not sent any weather packets the latest 10 day(s).

<< 93 94 95 96 97 98 99 >>
Time Temp. Humidity Pressure Rain* Wind** Luminosity Snow
1787982472 27.78° C 54% 1013 hPa 0 mm - 0 W/m² -
1787982168 27.78° C 53% 1012.8 hPa 0 mm - 0 W/m² -
1787981864 27.78° C 54% 1012.9 hPa 0 mm - 0 W/m² -
1787981563 28.33° C 53% 1012.9 hPa 0 mm - 0 W/m² -
1787981258 28.33° C 53% 1012.9 hPa 0 mm - 0 W/m² -
1787980958 28.33° C 53% 1012.9 hPa 0 mm - 0 W/m² -
1787980657 28.89° C 52% 1013 hPa 0 mm - 0 W/m² -
1787980352 28.89° C 52% 1013.1 hPa 0 mm - 0 W/m² -
1787980047 28.89° C 52% 1013.2 hPa 0 mm - 0 W/m² -
1787979743 28.89° C 52% 1013 hPa 0 mm - 0 W/m² -
1787979442 28.33° C 53% 1012.9 hPa 0 mm - 0 W/m² -
1787979141 28.33° C 53% 1013 hPa 0 mm - 0 W/m² -
1787978840 28.33° C 53% 1012.8 hPa 0 mm - 0 W/m² -
1787978535 28.89° C 52% 1012.9 hPa 0 mm - 0 W/m² -
1787978232 28.89° C 51% 1012.9 hPa 0 mm - 0 W/m² -
1787977931 28.89° C 52% 1013.3 hPa 0 mm - 0 W/m² -
1787977630 28.89° C 52% 1013.2 hPa 0 mm - 0 W/m² -
1787977326 28.89° C 52% 1013.2 hPa 0 mm - 0 W/m² -
1787977022 28.89° C 52% 1012.9 hPa 0 mm - 0 W/m² -
1787976722 28.89° C 52% 1012.6 hPa 0 mm - 0 W/m² -
1787976412 29.44° C 51% 1012.9 hPa 0 mm - 0 W/m² -
1787976112 28.89° C 52% 1012.7 hPa 0 mm - 0 W/m² -
1787975811 29.44° C 52% 1012.7 hPa 0 mm - 0 W/m² -
1787975510 29.44° C 51% 1012.3 hPa 0 mm - 0 W/m² -
1787975209 29.44° C 51% 1012.9 hPa 0 mm - 0 W/m² -

* Rain latest hour (hover to see other rain measurements)
** Current wind speed in m/s (hover to see current wind gust speed)